EHI
0 0 0 0 0 0 0 0 0 0 0 0 0 0 0 0 0 0 0 0 0 0 0 0 0 1 1 1 0 0 0 0 0 0 0 0 0 0 0 0 0 0 0
0 0 0 0 0 0 0 0 0 0 0 0 0 0 0 0 0 0 0 0 0 0 0 0 0 0 0 0 0 0 0 0 0 0 0 0 0 0 0 0 0 0 0
0 0 0 0 0 0 0 0 0 0 0 0 0 0 0 0 0 0 0 0 0 0 0 0 0 0 0 0 0 0 0 0 0 0 0 0 0 0 0 0 0 0 0
0 0 0 0 0 0 0 0 0 0 0 0 0 0 0 0 0 0 0 0 0 0 0 0 0 0 0 0 0 0 0 0 0 0 0 0 0 0 0 0 0 0 0
0 0 0 0 0 0 0 0 0 0 0 0 0 0 0 0 0 0 0 0 0 0 0 0 0 0 0 0 0 0 0 0 0 0 0 0 0 0 0 0 0 0 0
0 0 0 0 0 0 0 0 0 0 0 0 0 0 0 0 0 0 0 0 0 0 0 0 0 0 0 0 0 0 0 0 0 0 0 0 0 0 0 0 0 0 0
0 0 0 0 0 0 0 0 0 0 0 0 0 0 0 0 0 0 0 0 0 0 0 0 0 0 0 0 0 0 0 0 0 0 0 0 0 0 0 0 0 0 0
0 0 0 0 0 0 0 0 0 0 0 0 0 0 0 0 0 0 0 0 0 0 0 0 0 0 0 0 0 0 0 0 0 0 0 0 0 0 0 0 0 0 0
0 0 0 0 0 0 0 0 0 0 0 0 0 0 0 0 0 0 0 0 0 0 0 0 0 0 0 0 0 0 0 0 0 0 0 0 0 0 0 0 0 0 0
0 0 0 0 0 0 0 0 0 0 0 0 0 0 0 0 0 0 0 0 0 0 0 0 0 0 0 0 0 0 0 0 0 0 0 0 0 0 0 0 0 0 0
0 0 0 0 0 0 0 0 0 0 0 0 0 0 0 0 0 0 0 0 0 0 0 0 0 0 0 0 0 0 0 0 0 0 0 0 0 0 0 0 0 0 0
0 0 0 0 0 0 0 0 0 0 0 0 0 0 0 0 0 0 0 0 0 0 0 0 0 0 0 0 0 0 0 0 0 0 0 0 0 0 0 0 0 0 0
0 0 0 0 0 0 0 0 0 0 0 0 0 0 0 0 0 0 0 0 0 0 0 0 0 0 0 0 0 0 0 0 0 0 0 0 0 0 0 0 0 0 0
0 0 0 0 0 0 0 0 0 0 0 0 0 0 0 0 0 0 0 0 0 0 0 0 0 0 0 0 0 0 0 0 0 0 0 0 0 0 0 0 0 0 0
0 0 0 0 0 0 0 0 0 0 0 0 0 0 0 0 0 0 0 0 0 0 0 0 0 0 0 0 0 0 0 0 0 0 0 0 0 0 0 0 0 0 0
0 0 0 0 0 0 0 0 0 0 0 0 0 0 0 0 0 0 0 0 0 0 0 0 0 0 0 0 0 0 0 0 0 0 0 0 0 0 0 0 0 0 0
0 0 0 0 0 0 0 0 0 0 0 0 0 0 0 0 0 0 0 0 0 0 0 0 0 0 0 0 0 0 0 0 0 0 0 0 0 0 0 0 0 0 0
0 0 0 0 0 0 0 0 0 0 0 0 0 0 0 0 0 0 0 0 0 0 0 0 0 0 0 0 0 0 0 0 0 0 0 0 0 0 0 0 0 0 0
0 0 0 0 0 0 0 0 0 0 0 0 0 0 0 0 0 0 0 0 0 0 0 0 0 0 0 0 0 0 0 0 0 0 0 0 0 0 0 0 0 0 0
0 0 0 0 0 0 0 0 0 0 0 0 0 0 0 0 0 0 0 0 0 0 0 0 0 0 0 0 0 0 0 0 0 0 0 0 0 0 0 0 0 0 0
0 0 0 0 0 0 0 0 0 0 0 0 0 0 0 0 0 0 0 0 0 0 0 0 0 0 0 0 0 0 0 0 0 0 0 0 0 0 0 0 0 0 0
0 0 0 0 0 0 0 0 0 0 0 0 0 0 0 0 0 0 0 0 0 0 0 0 0 0 0 0 0 0 0 0 0 0 0 0 0 0 0 0 0 0 0
0 0 0 0 0 0 0 0 0 0 0 0 0 0 0 0 0 0 0 0 0 0 0 0 0 0 0 0 0 0 0 0 0 0 0 0 0 0 0 0 0 0 0
0 0 0 0 0 0 0 0 0 0 0 0 0 0 0 0 0 0 0 0 0 0 0 0 0 0 0 0 0 0 0 0 0 0 0 0 0 0 0 0 0 0 0
0 0 0 0 0 0 0 0 0 0 0 0 0 0 0 0 0 0 0 0 0 0 0 0 0 0 0 0 0 0 0 0 0 0 0 0 0 0 0 0 0 0 0
0 0 0 0 0 0 0 0 0 0 0 0 0 0 0 0 0 0 0 0 0 0 0 0 0 0 0 0 0 0 0 0 0 0 0 0 0 0 0 0 0 0 0
Wind_Speed
5 4 3 3 3 3 2 1 0 2 5 5 5 5 5 4 3 3 2 5 5 6 7 7 6 6 5 5 6 7 7 7 7 7 7 6 6 5 3 2 4 5 5
6 5 4 4 4 4 3 2 3 4 4 4 5 5 4 3 3 4 3 4 6 7 8 8 8 7 7 7 8 7 7 6 5 6 6 6 6 5 3 2 3 5 4
8 7 6 5 5 4 3 3 4 3 4 4 4 4 4 3 3 3 3 3 3 6 8 9 8 8 8 8 8 7 6 5 4 4 4 5 4 4 4 3 3 3 3
9 7 6 6 5 4 3 4 4 4 3 3 2 2 3 3 3 3 2 2 3 4 6 10 9 8 8 8 7 7 5 4 3 2 3 3 3 3 3 4 3 1 2
6 6 6 6 6 4 4 6 3 4 3 3 2 2 2 3 3 4 3 2 3 3 3 7 10 10 9 8 7 6 5 4 3 2 2 1 2 2 3 5 4 1 2
3 4 4 6 5 4 4 5 5 3 3 4 3 2 2 2 3 4 4 2 2 3 3 3 4 5 9 9 8 6 5 5 4 3 2 1 1 2 3 4 4 3 2
3 3 2 4 5 5 6 6 4 4 3 3 3 2 3 3 1 2 3 3 3 3 3 2 2 2 3 8 9 9 8 8 8 7 5 3 2 2 2 2 3 4 4
4 4 4 3 4 4 6 6 5 4 3 3 4 3 1 3 3 1 2 3 3 3 3 4 3 3 3 2 4 8 9 8 9 9 9 7 4 3 2 1 2 2 3
5 4 5 4 3 4 5 6 6 7 5 2 2 5 4 4 2 2 1 2 3 2 3 4 4 4 3 2 2 5 7 6 7 8 9 8 6 5 3 2 2 1 1
4 4 5 5 5 3 4 6 6 5 7 4 2 1 2 4 4 1 2 2 3 3 4 4 5 5 4 3 3 5 6 5 5 6 7 8 8 8 8 7 6 6 7
3 4 4 5 5 4 5 5 5 5 5 5 4 2 1 1 2 3 2 2 2 3 3 4 5 5 4 4 3 5 6 4 5 5 5 6 7 8 8 8 7 7 8
2 3 4 4 5 4 5 5 6 7 5 5 5 4 3 2 2 2 2 2 3 3 3 3 4 5 5 5 6 9 8 5 4 5 5 5 5 6 6 6 6 6 6
2 2 2 3 3 4 4 4 5 6 7 7 7 5 4 4 3 2 2 1 2 2 2 3 4 5 6 5 5 11 9 7 5 5 4 4 4 4 4 4 4 5 5
3 2 2 3 3 3 4 4 4 5 5 6 7 7 5 5 4 4 3 2 1 2 3 4 3 5 5 5 6 10 6 9 7 6 5 4 3 2 2 3 4 4 5
2 3 3 2 2 2 3 4 3 4 4 5 6 7 6 6 6 5 5 4 4 4 5 5 4 5 5 5 8 6 5 10 10 8 7 5 4 2 1 1 2 4 5
3 4 3 2 2 2 2 2 2 2 4 4 4 5 6 5 6 6 6 5 4 4 4 5 5 4 6 6 10 6 6 12 12 10 9 7 6 4 2 1 1 3 5
4 5 4 3 3 3 2 2 2 2 3 3 3 5 6 6 6 6 6 5 4 4 3 3 2 2 6 6 6 5 5 6 6 12 11 9 8 6 4 2 2 3 4
5 5 4 4 4 4 4 3 3 2 3 3 3 4 4 4 6 5 6 7 6 5 4 3 2 2 4 5 5 5 4 6 5 11 13 12 10 8 6 4 3 2 2
5 5 4 5 5 5 4 4 3 2 2 3 3 4 4 4 4 4 5 6 6 6 4 3 2 2 1 2 3 3 3 3 5 8 12 12 12 11 9 7 5 3 1
5 5 5 5 5 5 5 4 3 3 3 3 3 3 3 4 4 4 4 5 6 6 5 4 2 2 2 2 3 3 3 4 4 5 7 7 11 12 11 10 8 5 4
6 6 6 5 5 4 5 5 5 4 4 4 3 3 4 5 6 4 3 3 5 5 5 4 3 2 2 2 3 4 5 3 4 4 4 4 5 5 6 9 10 9 7
5 4 5 5 5 5 8 11 8 5 5 5 5 5 5 6 8 9 8 7 6 4 4 4 3 3 3 4 3 4 4 3 4 4 5 4 4 5 5 5 9 11 11
3 4 5 5 6 7 10 12 14 7 6 6 6 5 5 6 9 6 9 11 10 10 7 4 4 4 4 5 5 5 6 7 7 4 5 4 4 6 5 7 14 15 14
2 3 4 5 5 7 11 12 13 8 6 6 6 6 6 6 6 8 6 6 6 7 8 7 6 7 7 6 6 7 7 7 3 3 5 5 4 5 4 5 13 16 15
2 2 2 3 5 6 8 10 9 4 4 5 4 5 5 6 10 10 7 7 6 6 9 12 12 11 11 11 8 4 4 4 5 4 5 5 3 3 2 4 8 15 15
3 3 2 2 2 3 5 7 9 3 4 3 3 3 5 6 9 10 8 7 7 6 4 4 5 6 5 4 5 5 5 5 3 3 4 5 4 3 2 2 2 4 7
Wind_Direction
174 174 184 200 216 226 220 195 253 113 110 113 114 110 105 97 83 63 67 100 111 125 132 131 128 118 119 133 142 145 147 148 148 145 145 146 142 143 146 130 112 103 87
182 178 187 199 218 224 212 176 166 140 117 114 116 120 117 107 89 76 56 70 95 112 120 123 120 115 110 110 115 120 126 129 131 133 136 141 143 149 154 152 118 99 83
190 187 191 195 214 224 192 147 152 125 110 105 117 133 138 135 111 91 69 52 65 92 110 110 109 111 111 110 110 113 115 118 119 120 123 128 140 155 163 169 136 97 68
186 185 190 195 199 187 159 149 152 123 116 115 117 127 131 142 143 123 88 66 59 64 81 90 88 94 108 111 113 115 116 119 120 119 120 135 153 165 173 172 156 98 8
178 180 190 194 182 164 159 159 154 138 141 139 135 109 107 133 156 140 128 119 96 82 70 78 78 74 83 91 100 110 123 132 136 136 148 173 187 180 163 159 162 200 307
183 174 194 192 177 162 162 158 153 142 155 156 142 98 64 99 137 143 154 157 140 122 100 87 72 70 73 70 70 86 104 115 116 121 132 160 200 197 178 171 176 194 247
170 164 190 199 183 175 175 163 148 144 143 134 105 69 11 9 102 139 156 161 173 166 143 132 102 81 66 62 56 64 69 76 80 76 78 96 130 168 179 189 203 206 219
177 179 184 199 200 182 175 171 151 141 145 150 135 115 51 341 327 41 159 178 188 179 180 188 154 129 108 81 62 62 53 58 67 66 64 68 84 108 130 171 214 215 219
193 184 182 179 204 199 189 184 172 153 154 170 156 145 152 204 253 308 235 204 194 189 187 174 180 165 148 122 86 61 58 50 66 67 65 62 63 75 84 94 115 132 143
202 190 186 184 188 193 202 203 186 167 149 160 173 170 153 160 156 205 298 265 223 202 189 173 173 175 166 151 138 111 80 59 74 76 70 65 66 71 72 71 75 80 84
215 196 184 182 186 189 198 206 190 185 163 159 162 157 134 147 140 142 203 249 265 247 211 179 168 170 173 168 157 149 121 93 92 89 78 68 64 65 64 62 66 78 82
209 197 186 189 195 193 197 202 196 192 185 166 166 164 169 175 187 149 160 206 224 248 231 201 179 177 180 180 182 167 156 148 132 109 90 78 63 55 49 48 54 58 63
211 215 189 196 200 204 203 195 194 197 188 179 176 181 185 186 162 149 147 199 220 246 226 222 205 183 184 184 187 177 174 170 161 140 115 94 76 62 47 35 27 23 29
207 201 187 193 198 202 203 199 201 200 195 193 193 188 187 192 180 167 159 164 201 248 239 232 206 197 188 183 193 183 181 182 178 170 154 132 104 79 56 41 21 9 3
182 179 176 181 182 183 195 195 205 207 195 201 204 201 199 198 192 184 167 165 177 206 232 227 211 203 188 181 187 184 181 194 190 187 178 170 161 155 146 55 9 356 351
169 166 181 199 196 174 161 170 185 192 192 204 205 206 209 207 200 194 180 172 179 194 228 230 215 199 184 189 190 183 191 196 199 196 192 189 187 190 197 222 330 344 339
178 182 190 199 202 197 183 171 176 175 194 210 212 211 218 211 206 199 184 178 182 177 222 258 228 198 175 178 175 179 190 196 199 203 203 201 203 210 218 236 288 328 336
190 191 191 192 200 205 202 197 201 193 205 221 222 216 222 214 210 199 191 191 189 181 188 226 227 195 191 189 172 177 189 196 193 208 210 209 210 216 221 228 250 295 332
200 200 198 200 203 205 208 210 209 215 221 226 221 215 214 199 203 200 198 194 190 184 171 185 213 211 190 153 152 182 191 201 204 216 217 215 215 218 221 225 232 249 257
202 204 209 210 206 203 204 206 206 214 221 225 219 214 208 200 198 193 195 189 181 175 168 167 177 197 196 152 147 177 202 215 214 208 211 206 214 221 223 228 231 234 228
212 207 211 217 210 201 206 201 201 207 212 220 220 215 213 210 201 193 183 180 179 173 163 158 161 174 185 169 195 192 210 206 223 204 195 203 204 214 218 229 231 231 224
228 217 215 215 210 214 216 207 198 202 206 214 224 227 228 233 231 223 209 195 185 174 165 154 159 187 207 213 207 198 196 185 234 209 185 215 193 216 217 215 225 226 227
236 233 226 214 213 223 227 219 210 201 206 214 219 221 232 232 230 225 227 218 208 201 191 172 189 212 222 222 212 210 203 207 218 187 167 214 198 225 218 221 222 224 224
255 239 233 222 221 231 232 231 217 204 211 219 219 220 230 244 225 210 207 212 214 211 209 213 220 230 236 236 222 220 218 223 232 186 165 197 199 215 215 212 224 219 217
333 290 255 228 225 243 240 234 211 186 213 231 235 233 230 240 244 217 197 209 219 226 225 224 227 238 245 247 235 213 200 195 226 221 187 195 197 196 214 222 226 223 213
337 334 333 299 253 257 265 242 204 182 211 237 255 265 261 253 249 220 195 196 212 224 208 200 216 231 240 265 248 213 205 201 207 234 197 183 174 156 237 254 222 213 207